User: anonymous   Login
Location: Poughquag
(41.6090°N, 73.6820°W)
Time: 13:00:56
(UTC-04:00)
Language:

Oscar 11 - Orbit

View from above orbital plane
View from above orbital plane
View from above satellite
View from above satellite

Ground track
Ground track

The orbit data is extracted from the following two-line orbital elements,

1 14781U 84021B   24200.18218082  .00003605  00000-0  40940-3 0  9998
2 14781  97.7058 168.5285 0007495 346.7114  13.3903 14.86882928174091
Epoch (UTC): 18 July 2024 04:22:20
Eccentricity: 0.0007495
inclination: 97.7058°
perigee height: 602 km
apogee height: 613 km
right ascension of ascending node: 168.5285°
argument of perigee: 346.7114°
revolutions per day: 14.86882928
mean anomaly at epoch: 13.3903°
orbit number at epoch: 17409

The dashed part of the orbit path shows where the satellite is in the earth's shadow,  

DLR